New Bedford, MA

11:32 AM EDT on April 27, 2017 (GMT -0400)
New Bedford Regional

Weather History for KEWB - June, 2013

Change the Weather History Date:

Tuesday, June 11, 2013

  Actual Average Record
Temperature  
Mean Temperature 65 °F -  
Max Temperature 77 °F 76 °F 96 °F (1973)
Min Temperature 55 °F 57 °F 44 °F (1999)
Growing Degree Days 15 (Base 50)    
Moisture  
Dew Point 62 °F    
Average Humidity 92    
Maximum Humidity 100    
Minimum Humidity 73    
Precipitation  
Precipitation 1.72 in - - ()
Sea Level Pressure  
Sea Level Pressure 29.70 in    
Wind  
Wind Speed 9 mph (SSW)    
Max Wind Speed 15 mph    
Max Gust Speed 22 mph    
Visibility 6 miles    
Events Rain    
Averages and records for this station are not official NWS values.
T = Trace of Precipitation, MM = Missing Value Source: NWS Daily Summary

Daily Weather History Graph

Daily Weather History Graph

Search for Another Location

Airport or City:

Trip Planner

Search our weather history database for the weather conditions in past years. The results will help you decide how hot, cold, wet, or windy it might be!

Date:

Astronomy

Jun. 11, 2013 Rise Set
Actual Time 5:08 AM EDT 8:18 PM EDT
Civil Twilight 4:34 AM EDT 8:52 PM EDT
Nautical Twilight 3:51 AM EDT 9:36 PM EDT
Astronomical Twilight 2:59 AM EDT 10:28 PM EDT
Moon 7:50 AM EDT (6/11) 10:17 PM EDT (6/11)
Length of Visible Light 16h 17m
Length of Day
15h 09m
Waxing Crescent, 8% of the Moon is Illuminated
Jun 11
Waxing Crescent
Jun 16
First Quarter
Jun 23
Full
Jun 30
Last Quarter
Jul 8
New

Hourly Weather History & Observations

Time (EDT) Temp. Dew Point Humidity Pressure Visibility Wind Dir Wind Speed Gust Speed Precip Events Conditions
12:53 AM 60.1 °F 57.9 °F 93% 29.95 in 4.0 mi East 9.2 mph - 0.17 in Rain Rain
1:12 AM 60.8 °F 57.2 °F 88% 29.92 in 4.0 mi East 10.4 mph - 0.11 in Rain Rain
1:23 AM 60.8 °F 59.0 °F 94% 29.92 in 1.8 mi East 9.2 mph - 0.32 in Rain Heavy Rain
1:36 AM 60.8 °F 59.0 °F 94% 29.91 in 3.0 mi East 12.7 mph - 0.47 in Rain Heavy Rain
1:53 AM 60.1 °F 59.0 °F 96% 29.90 in 6.0 mi East 9.2 mph - 0.52 in Rain Light Rain
2:12 AM 60.8 °F 59.0 °F 94% 29.88 in 5.0 mi East 9.2 mph 17.3 mph 0.02 in Rain Light Rain
2:28 AM 60.8 °F 59.0 °F 94% 29.88 in 2.0 mi East 8.1 mph 17.3 mph 0.20 in Rain Heavy Rain
2:51 AM 60.8 °F 59.0 °F 94% 29.86 in 4.0 mi East 9.2 mph - 0.37 in Rain Light Rain
2:53 AM 61.0 °F 59.0 °F 93% 29.86 in 5.0 mi East 6.9 mph - 0.37 in Rain Light Rain
3:19 AM 60.8 °F 60.8 °F 100% 29.84 in 3.0 mi Calm Calm - 0.02 in Rain Rain
3:45 AM 60.8 °F 60.8 °F 100% 29.83 in 2.0 mi East 5.8 mph - 0.15 in Rain Heavy Rain
3:53 AM 61.0 °F 60.1 °F 97% 29.82 in 3.0 mi East 3.5 mph - 0.18 in Rain Light Rain
4:08 AM 60.8 °F 60.8 °F 100% 29.81 in 2.0 mi East 5.8 mph - 0.12 in Rain Heavy Rain
4:17 AM 60.8 °F 60.8 °F 100% 29.81 in 10.0 mi ESE 5.8 mph - 0.12 in Rain Light Rain
4:53 AM 63.0 °F 62.1 °F 97% 29.79 in 3.0 mi ESE 5.8 mph - 0.13 in Rain Light Rain
5:36 AM 64.4 °F 64.4 °F 100% 29.77 in 1.8 mi SSE 5.8 mph - 0.04 in Rain Light Rain
5:47 AM 64.4 °F 64.4 °F 100% 29.77 in 3.0 mi SSE 6.9 mph - 0.07 in Rain Light Rain
5:53 AM 64.9 °F 64.0 °F 97% 29.76 in 7.0 mi SSE 6.9 mph - 0.07 in   Overcast
6:02 AM 64.4 °F 64.4 °F 100% 29.76 in 1.8 mi SSE 5.8 mph - N/A   Overcast
6:53 AM 66.0 °F 64.0 °F 93% 29.74 in 1.2 mi SSW 9.2 mph - 0.01 in   Overcast
7:50 AM 64.4 °F 64.4 °F 100% 29.73 in 2.5 mi SW 11.5 mph 18.4 mph 0.00 in   Overcast
7:53 AM 64.9 °F 64.0 °F 97% 29.73 in 2.5 mi SW 11.5 mph 19.6 mph 0.00 in   Overcast
8:03 AM 66.2 °F 64.4 °F 94% 29.73 in 3.0 mi SW 11.5 mph 19.6 mph N/A   Overcast
8:31 AM 66.2 °F 64.4 °F 94% 29.72 in 2.0 mi SW 15.0 mph 21.9 mph N/A   Overcast
8:53 AM 66.0 °F 64.9 °F 96% 29.72 in 4.0 mi SW 10.4 mph 19.6 mph N/A   Overcast
9:53 AM 68.0 °F 66.0 °F 93% 29.70 in 7.0 mi SW 10.4 mph - N/A   Overcast
10:53 AM 69.1 °F 66.0 °F 90% 29.69 in 10.0 mi SW 8.1 mph 17.3 mph N/A   Overcast
11:53 AM 71.1 °F 66.0 °F 84% 29.68 in 10.0 mi SW 8.1 mph - N/A   Overcast
12:28 PM 73.4 °F 66.2 °F 78% 29.68 in 10.0 mi SW 10.4 mph - N/A   Overcast
12:53 PM 75.0 °F 66.9 °F 76% 29.68 in 10.0 mi SW 10.4 mph 17.3 mph N/A   Overcast
1:07 PM 75.2 °F 66.2 °F 73% 29.67 in 10.0 mi SW 11.5 mph - N/A   Overcast
1:53 PM 73.0 °F 66.9 °F 81% 29.66 in 10.0 mi WNW 8.1 mph - N/A   Overcast
2:53 PM 75.0 °F 66.0 °F 73% 29.64 in 10.0 mi West 6.9 mph - N/A   Mostly Cloudy
3:53 PM 75.0 °F 66.9 °F 76% 29.62 in 10.0 mi SSW 4.6 mph - N/A   Mostly Cloudy
4:00 PM 75.2 °F 66.2 °F 73% 29.61 in 10.0 mi Variable 5.8 mph - N/A   Mostly Cloudy
4:53 PM 73.9 °F 64.9 °F 73% 29.60 in 10.0 mi SSW 12.7 mph - N/A   Partly Cloudy
5:53 PM 70.0 °F 64.0 °F 81% 29.58 in 10.0 mi South 12.7 mph 19.6 mph N/A   Scattered Clouds
6:47 PM 64.4 °F 62.6 °F 94% 29.59 in 2.5 mi SSW 11.5 mph - 0.06 in Rain Heavy Rain
6:53 PM 64.9 °F 63.0 °F 93% 29.58 in 2.0 mi SW 10.4 mph - 0.08 in Rain Rain
7:07 PM 64.4 °F 64.4 °F 100% 29.58 in 2.5 mi SSW 9.2 mph - 0.06 in Rain Rain
7:33 PM 66.2 °F 64.4 °F 94% 29.56 in 5.0 mi SSW 9.2 mph - 0.12 in Rain Light Rain
7:46 PM 66.2 °F 64.4 °F 94% 29.56 in 10.0 mi SW 8.1 mph - 0.12 in   Overcast
7:53 PM 66.0 °F 64.0 °F 93% 29.56 in 3.0 mi SW 8.1 mph - 0.15 in Rain Light Rain
7:56 PM 64.4 °F 64.4 °F 100% 29.56 in 2.0 mi SW 6.9 mph - 0.01 in Rain Heavy Rain
8:10 PM 64.4 °F 64.4 °F 100% 29.54 in 5.0 mi SW 11.5 mph 19.6 mph 0.03 in Rain Light Rain
8:43 PM 64.4 °F 62.6 °F 94% 29.54 in 9.0 mi SW 11.5 mph 19.6 mph 0.04 in   Overcast
8:53 PM 66.0 °F 63.0 °F 90% 29.54 in 9.0 mi WSW 12.7 mph 20.7 mph 0.04 in   Overcast
9:02 PM 64.4 °F 62.6 °F 94% 29.55 in 10.0 mi WSW 11.5 mph - N/A   Overcast
9:15 PM 66.2 °F 64.4 °F 94% 29.56 in 10.0 mi West 12.7 mph 20.7 mph N/A   Overcast
9:31 PM 64.4 °F 62.6 °F 94% 29.58 in 10.0 mi NW 8.1 mph 21.9 mph N/A   Overcast
9:53 PM 60.1 °F 57.9 °F 93% 29.60 in 10.0 mi Variable 6.9 mph - N/A   Overcast
10:05 PM 57.2 °F 57.2 °F 100% 29.60 in 10.0 mi Variable 5.8 mph - N/A   Overcast
10:42 PM 57.2 °F 55.4 °F 94% 29.60 in 10.0 mi Variable 3.5 mph - N/A   Overcast
10:53 PM 55.9 °F 55.0 °F 97% 29.61 in 10.0 mi Calm Calm - N/A   Overcast
11:53 PM 55.9 °F 54.0 °F 93% 29.61 in 10.0 mi Calm Calm - N/A   Overcast